Location: Krakow
(50.0830°N, 19.9170°E)
Time: 19:44:21
(UTC+01:00)

Explorer 11/Cluster Stage 4 - All Passes

Search period start: 07 February 2023 00:00
Search period end: 17 February 2023 00:00
Orbit: 466 x 1243 km, 28.8° (Epoch: 06 February)

Date Brightness Start Highest point End Pass type
(mag) Time Alt. Az. Time Alt. Az. Time Alt. Az.
07 Feb - 03:14:57 10° SSE 03:15:47 10° SSE 03:16:36 10° SSE visible
07 Feb - 04:59:17 10° SSW 05:03:06 14° S 05:07:01 10° SSE visible
07 Feb - 06:48:03 10° SSW 06:50:32 12° SSW 06:53:03 10° S daylight
08 Feb - 03:01:11 10° S 03:02:10 10° SSE 03:03:09 10° SSE visible
08 Feb - 04:45:52 10° SSW 04:49:27 14° S 04:53:12 10° SSE visible
08 Feb - 06:35:08 10° SSW 06:36:53 11° SSW 06:38:39 10° S visible
09 Feb - 02:47:43 10° S 02:48:33 10° SSE 02:49:24 10° SSE visible
09 Feb - 04:32:33 10° SSW 04:35:50 13° S 04:39:16 10° SSE visible
10 Feb - 02:34:51 10° SSE 02:34:58 10° SSE 02:35:02 10° SSE visible
10 Feb - 04:19:20 10° SSW 04:22:12 13° S 04:25:13 10° SSE visible
11 Feb - 04:06:17 10° SSW 04:08:36 12° S 04:11:00 10° SSE visible
12 Feb - 03:53:34 10° SSW 03:55:00 11° S 03:56:27 10° S visible
